Wahpeton, MN

7:56 AM CST on December 06, 2019 (GMT -0600)
Stern

Weather History for KBWP - October, 2019

Change the Weather History Date:

Sunday, October 20, 2019

  Actual Average (KFFM) Record (KFFM)
Temperature  
Mean Temperature 44 °F -  
Max Temperature 55 °F 55 °F 83 °F (1953)
Min Temperature 32 °F 34 °F 23 °F (1952)
Degree Days  
Heating Degree Days 22    
Moisture  
Dew Point 34 °F    
Average Humidity 69    
Maximum Humidity 100    
Minimum Humidity 44    
Precipitation  
Precipitation 0.00 in - - ()
Sea Level Pressure  
Sea Level Pressure 29.74 in    
Wind  
Wind Speed 5 mph ()    
Max Wind Speed 16 mph    
Max Gust Speed 28 mph    
Visibility 9.0 miles    
Events      
Averages and records for this station are not official NWS values.
T = Trace of Precipitation, MM = Missing Value Source: Averaged Metar Reports

Daily Weather History Graph

Daily Weather History Graph

Search for Another Location

Airport or City:

Astronomy

Oct. 20, 2019 Rise Set
Actual Time 7:50 AM CDT 6:31 PM CDT
Civil Twilight 7:19 AM CDT 7:01 PM CDT
Nautical Twilight 6:44 AM CDT 7:36 PM CDT
Astronomical Twilight 6:10 AM CDT 8:11 PM CDT
Moon 11:28 PM CDT (10/20) 2:33 PM CDT (10/20)
Length of Visible Light 11h 42m
Length of Day
10h 41m
Waning Gibbous, 59% of the Moon is Illuminated
Oct 20
Waning Gibbous
Oct 21
Last Quarter
Oct 27
New
Nov 4
First Quarter
Nov 12
Full

Hourly Weather History & Observations

Time (CDT) Temp. Windchill Dew Point Humidity Pressure Visibility Wind Dir Wind Speed Gust Speed Precip Events Conditions
12:15 AM 35.6 °F 31.7 °F 32.0 °F 87% 29.69 in 7.0 mi South 4.6 mph - N/A   Unknown
12:35 AM 37.4 °F 33.8 °F 32.0 °F 81% 29.69 in 10.0 mi SSW 4.6 mph - N/A   Unknown
12:55 AM 35.6 °F 32.8 °F 32.0 °F 87% 29.69 in 7.0 mi SSE 3.5 mph - N/A   Unknown
1:15 AM 37.4 °F - 32.0 °F 81% 29.69 in 5.0 mi Calm Calm - N/A   Unknown
1:35 AM 35.6 °F 29.9 °F 32.0 °F 87% 29.69 in 10.0 mi South 6.9 mph - N/A   Unknown
1:55 AM 35.6 °F 32.8 °F 32.0 °F 87% 29.70 in 7.0 mi SE 3.5 mph - N/A   Unknown
2:15 AM 35.6 °F - 32.0 °F 87% 29.70 in 10.0 mi Calm Calm - N/A   Unknown
2:35 AM 35.6 °F 31.7 °F 32.0 °F 87% 29.71 in 5.0 mi SE 4.6 mph - N/A   Unknown
2:55 AM 35.6 °F 30.7 °F 32.0 °F 87% 29.71 in 4.0 mi SSE 5.8 mph - N/A   Unknown
3:15 AM 33.8 °F 28.6 °F 32.0 °F 93% 29.71 in 4.0 mi SE 5.8 mph - N/A   Unknown
3:35 AM 33.8 °F - 32.0 °F 93% 29.72 in 7.0 mi Calm Calm - N/A   Unknown
3:55 AM 33.8 °F 28.6 °F 32.0 °F 93% 29.73 in 5.0 mi SE 5.8 mph - N/A   Unknown
4:15 AM 33.8 °F 28.6 °F 32.0 °F 93% 29.73 in 4.0 mi SSE 5.8 mph - N/A   Unknown
4:35 AM 33.8 °F 30.8 °F 30.2 °F 87% 29.73 in 7.0 mi SE 3.5 mph - N/A   Unknown
4:55 AM 33.8 °F 30.8 °F 32.0 °F 93% 29.74 in 10.0 mi SE 3.5 mph - N/A   Unknown
5:15 AM 32.0 °F 28.7 °F 30.2 °F 93% 29.74 in 10.0 mi ENE 3.5 mph - N/A   Unknown
5:35 AM 32.0 °F - 30.2 °F 93% 29.74 in 7.0 mi Calm Calm - N/A   Unknown
5:55 AM 32.0 °F - 30.2 °F 93% 29.74 in 10.0 mi Calm Calm - N/A   Unknown
6:15 AM 32.0 °F - 32.0 °F 100% 29.75 in 10.0 mi Calm Calm - N/A   Unknown
6:35 AM 32.0 °F 27.5 °F 30.2 °F 93% 29.76 in 7.0 mi ESE 4.6 mph - N/A   Unknown
6:55 AM 32.0 °F 26.4 °F 30.2 °F 93% 29.76 in 5.0 mi SE 5.8 mph - N/A   Unknown
7:15 AM 32.0 °F 28.7 °F 30.2 °F 93% 29.76 in 10.0 mi East 3.5 mph - N/A   Unknown
7:35 AM 33.8 °F 30.8 °F 30.2 °F 87% 29.77 in 10.0 mi East 3.5 mph - N/A   Unknown
7:55 AM 33.8 °F 29.6 °F 30.2 °F 87% 29.77 in 7.0 mi ESE 4.6 mph - N/A   Unknown
8:15 AM 33.8 °F 30.8 °F 30.2 °F 87% 29.76 in 10.0 mi East 3.5 mph - N/A   Unknown
8:35 AM 33.8 °F 29.6 °F 32.0 °F 93% 29.77 in 5.0 mi SE 4.6 mph - N/A   Unknown
8:55 AM 35.6 °F 30.7 °F 32.0 °F 87% 29.78 in 7.0 mi SE 5.8 mph - N/A   Unknown
9:15 AM 37.4 °F 32.8 °F 32.0 °F 81% 29.78 in 10.0 mi ESE 5.8 mph - N/A   Unknown
9:35 AM 41.0 °F 36.4 °F 32.0 °F 70% 29.79 in 5.0 mi SE 6.9 mph - N/A   Unknown
9:55 AM 41.0 °F 39.0 °F 33.8 °F 76% 29.78 in 10.0 mi East 3.5 mph - N/A   Unknown
10:15 AM 42.8 °F 39.3 °F 33.8 °F 70% 29.79 in 10.0 mi East 5.8 mph - N/A   Unknown
10:35 AM 44.6 °F 42.2 °F 35.6 °F 71% 29.79 in 10.0 mi East 4.6 mph - N/A   Unknown
10:55 AM 44.6 °F 43.1 °F 35.6 °F 71% 29.79 in 10.0 mi ESE 3.5 mph - N/A   Unknown
11:15 AM 46.4 °F 45.2 °F 35.6 °F 66% 29.79 in 10.0 mi ESE 3.5 mph - N/A   Unknown
11:35 AM 48.2 °F - 37.4 °F 66% 29.80 in 10.0 mi SE 5.8 mph - N/A   Unknown
11:55 AM 50.0 °F - 37.4 °F 62% 29.79 in 10.0 mi ESE 4.6 mph - N/A   Unknown
12:15 PM 50.0 °F - 37.4 °F 62% 29.79 in 10.0 mi ESE 4.6 mph - N/A   Unknown
12:35 PM 51.8 °F - 37.4 °F 58% 29.79 in 10.0 mi ESE 6.9 mph - N/A   Unknown
12:55 PM 51.8 °F - 37.4 °F 58% 29.78 in 10.0 mi ESE 4.6 mph - N/A   Unknown
1:15 PM 51.8 °F - 37.4 °F 58% 29.77 in 10.0 mi SE 6.9 mph - N/A   Unknown
1:35 PM 51.8 °F - 37.4 °F 58% 29.78 in 10.0 mi SE 6.9 mph - N/A   Unknown
1:55 PM 53.6 °F - 37.4 °F 54% 29.77 in 10.0 mi SE 8.1 mph - N/A   Unknown
2:15 PM 53.6 °F - 37.4 °F 54% 29.76 in 10.0 mi SE 6.9 mph - N/A   Unknown
2:35 PM 53.6 °F - 37.4 °F 54% 29.76 in 10.0 mi SE 9.2 mph - N/A   Unknown
2:55 PM 53.6 °F - 37.4 °F 54% 29.75 in 10.0 mi SE 10.4 mph - N/A   Unknown
3:15 PM 53.6 °F - 37.4 °F 54% 29.75 in 10.0 mi ESE 8.1 mph - N/A   Unknown
3:35 PM 53.6 °F - 37.4 °F 54% 29.74 in 10.0 mi East 6.9 mph - N/A   Unknown
3:55 PM 53.6 °F - 37.4 °F 54% 29.75 in 10.0 mi East 6.9 mph - N/A   Unknown
4:15 PM 53.6 °F - 37.4 °F 54% 29.76 in 10.0 mi SSE 6.9 mph - N/A   Unknown
4:35 PM 53.6 °F - 39.2 °F 58% 29.74 in 10.0 mi East 4.6 mph - N/A   Unknown
4:55 PM 53.6 °F - 37.4 °F 54% 29.74 in 10.0 mi ENE 3.5 mph - N/A   Unknown
5:15 PM 53.6 °F - 37.4 °F 54% 29.74 in 10.0 mi East 9.2 mph - N/A   Unknown
5:35 PM 53.6 °F - 37.4 °F 54% 29.73 in 10.0 mi East 4.6 mph - N/A   Unknown
5:55 PM 53.6 °F - 37.4 °F 54% 29.73 in 10.0 mi East 5.8 mph - N/A   Unknown
6:15 PM 53.6 °F - 35.6 °F 51% 29.74 in 10.0 mi East 8.1 mph - N/A   Unknown
6:35 PM 53.6 °F - 35.6 °F 51% 29.74 in 10.0 mi ESE 4.6 mph - N/A   Unknown
6:55 PM 53.6 °F - 35.6 °F 51% 29.74 in 10.0 mi ESE 10.4 mph - N/A   Unknown
7:15 PM 55.4 °F - 33.8 °F 44% 29.73 in 10.0 mi East 10.4 mph 24.2 mph N/A   Unknown
7:35 PM 55.4 °F - 33.8 °F 44% 29.72 in 10.0 mi East 10.4 mph 24.2 mph N/A   Unknown
7:55 PM 55.4 °F - 33.8 °F 44% 29.71 in 10.0 mi East 9.2 mph - N/A   Unknown
8:15 PM 55.4 °F - 33.8 °F 44% 29.72 in 10.0 mi East 9.2 mph - N/A   Unknown
8:35 PM 53.6 °F - 33.8 °F 47% 29.72 in 10.0 mi East 9.2 mph - N/A   Unknown
8:55 PM 53.6 °F - 35.6 °F 51% 29.72 in 10.0 mi East 8.1 mph - N/A   Unknown
9:15 PM 53.6 °F - 35.6 °F 51% 29.72 in 10.0 mi East 6.9 mph - N/A   Unknown
9:35 PM 53.6 °F - 35.6 °F 51% 29.73 in 10.0 mi ESE 13.8 mph 27.6 mph N/A   Unknown
9:55 PM 55.4 °F - 33.8 °F 44% 29.73 in 10.0 mi East 6.9 mph 19.6 mph N/A   Unknown
10:15 PM 53.6 °F - 35.6 °F 51% 29.74 in 10.0 mi ESE 5.8 mph - N/A   Unknown
10:35 PM 53.6 °F - 35.6 °F 51% 29.73 in 10.0 mi East 9.2 mph - N/A   Unknown
10:55 PM 53.6 °F - 35.6 °F 51% 29.72 in 10.0 mi ENE 11.5 mph - N/A   Unknown
11:15 PM 53.6 °F - 35.6 °F 51% 29.73 in 10.0 mi SE 12.7 mph 23.0 mph N/A   Unknown
11:35 PM 53.6 °F - 35.6 °F 51% 29.72 in 10.0 mi East 12.7 mph 23.0 mph N/A   Unknown
11:55 PM 53.6 °F - 37.4 °F 54% 29.73 in 10.0 mi ESE 16.1 mph 23.0 mph N/A   Unknown